User: anonymous   Login
Location: Fours
(44.3167°N, 6.7000°E)
Time: 12:19:01
(UTC+00:00)
Language:

Cosmos 1607 - Orbit

View from above orbital plane
View from above orbital plane
View from above satellite
View from above satellite

Ground track
Ground track

The orbit data is extracted from the following two-line orbital elements,

1 15378U 84112A   22019.91080941 -.00000059  00000-0  26548-4 0  9990
2 15378  64.9918 267.2928 0040889 183.0216 177.0603 13.83575775882327
Epoch (UTC): 19 January 2022 21:51:33
Eccentricity: 0.0040889
inclination: 64.9918°
perigee height: 921 km
apogee height: 981 km
right ascension of ascending node: 267.2928°
argument of perigee: 183.0216°
revolutions per day: 13.83575775
mean anomaly at epoch: 177.0603°
orbit number at epoch: 88232

The dashed part of the orbit path shows where the satellite is in the earth's shadow,  

DLR